Weather History for KMTJ - July, 2013

Change the Weather History Date:

Thursday, July 4, 2013

  Actual Average Record
Temperature  
Mean Temperature 78 °F 73 °F  
Max Temperature 90 °F 90 °F 98 °F (2001)
Min Temperature 65 °F 56 °F 45 °F (1997)
Degree Days  
Heating Degree Days 0 0  
Month to date heating degree days 0 0  
Since 1 June heating degree days 9 39  
Since 1 July heating degree days 0 0  
Cooling Degree Days 13 8  
Month to date cooling degree days 47 31  
Year to date cooling degree days 311 183  
Since 1 June cooling degree days 286 166  
Growing Degree Days 28 (Base 50)    
Moisture  
Dew Point 41 °F    
Average Humidity 28    
Maximum Humidity 42    
Minimum Humidity 14    
Precipitation  
Precipitation 0.00 in 0.03 in 0.12 in (2006)
Month to date precipitation T 0.10  
Year to date precipitation 2.65 5.17  
Sea Level Pressure  
Sea Level Pressure 29.78 in    
Wind  
Wind Speed 5 mph (ESE)    
Max Wind Speed 15 mph    
Max Gust Speed 18 mph    
Visibility 10 miles    
Events      
T = Trace of Precipitation, MM = Missing Value Source: NWS Daily Summary

Daily Weather History Graph

Daily Weather History Graph

Search for Another Location

Airport or City:

Trip Planner

Search our weather history database for the weather conditions in past years. The results will help you decide how hot, cold, wet, or windy it might be!

Date:

Astronomy

Jul. 04, 2013 Rise Set
Actual Time 5:52 AM MDT 8:39 PM MDT
Civil Twilight 5:21 AM MDT 9:10 PM MDT
Nautical Twilight 4:41 AM MDT 9:50 PM MDT
Astronomical Twilight 3:56 AM MDT 10:34 PM MDT
Moon 3:10 AM MDT (7/4) 5:47 PM MDT (7/4)
Length of Visible Light 15h 49m
Length of Day
14h 46m
Waning Crescent, 11% of the Moon is Illuminated
Jul 4
Waning Crescent
Jul 8
New
Jul 15
First Quarter
Jul 22
Full
Jul 29
Last Quarter

Hourly Weather History & Observations

Time (MDT) Temp. Dew Point Humidity Pressure Visibility Wind Dir Wind Speed Gust Speed Precip Events Conditions
12:53 AM 73.0 °F 41.0 °F 31% 29.83 in 10.0 mi Calm Calm - N/A   Clear
1:53 AM 68.0 °F 42.1 °F 39% 29.82 in 10.0 mi Calm Calm - N/A   Clear
2:53 AM 68.0 °F 43.0 °F 40% 29.82 in 10.0 mi ESE 5.8 mph - N/A   Clear
3:53 AM 66.0 °F 42.1 °F 42% 29.82 in 10.0 mi SE 8.1 mph - N/A   Clear
4:53 AM 66.0 °F 41.0 °F 40% 29.80 in 10.0 mi SE 6.9 mph - N/A   Clear
5:53 AM 66.9 °F 39.9 °F 37% 29.81 in 10.0 mi SE 8.1 mph - N/A   Clear
6:53 AM 66.0 °F 42.1 °F 42% 29.84 in 10.0 mi SE 8.1 mph - N/A   Clear
7:53 AM 70.0 °F 41.0 °F 35% 29.85 in 10.0 mi SSE 5.8 mph - N/A   Clear
8:53 AM 75.0 °F 42.1 °F 31% 29.84 in 10.0 mi NE 4.6 mph - N/A   Clear
9:53 AM 78.1 °F 42.1 °F 28% 29.83 in 10.0 mi Calm Calm - N/A   Clear
10:53 AM 82.0 °F 42.1 °F 24% 29.80 in 10.0 mi NW 5.8 mph - N/A   Clear
11:53 AM 86.0 °F 39.9 °F 20% 29.79 in 10.0 mi WNW 9.2 mph - N/A   Clear
12:53 PM 84.0 °F 41.0 °F 22% 29.80 in 10.0 mi NW 11.5 mph - N/A   Clear
1:53 PM 84.9 °F 39.9 °F 20% 29.80 in 10.0 mi North 9.2 mph - N/A   Clear
2:53 PM 84.9 °F 39.9 °F 20% 29.78 in 10.0 mi North 4.6 mph - N/A   Clear
3:53 PM 86.0 °F 39.0 °F 19% 29.76 in 10.0 mi Calm Calm - N/A   Clear
4:53 PM 89.1 °F 37.9 °F 16% 29.73 in 10.0 mi Calm Calm - N/A   Clear
5:53 PM 89.1 °F 34.0 °F 14% 29.70 in 10.0 mi Calm Calm - N/A   Clear
6:53 PM 90.0 °F 36.0 °F 15% 29.70 in 10.0 mi Calm Calm - N/A   Clear
7:53 PM 87.1 °F 36.0 °F 16% 29.69 in 10.0 mi Calm Calm - N/A   Clear
8:53 PM 81.0 °F 46.9 °F 30% 29.70 in 10.0 mi Calm Calm - N/A   Clear
9:53 PM 75.0 °F 45.0 °F 34% 29.72 in 10.0 mi SE 6.9 mph - N/A   Clear
10:53 PM 73.0 °F 43.0 °F 34% 29.72 in 10.0 mi SE 9.2 mph - N/A   Clear
11:53 PM 72.0 °F 42.1 °F 34% 29.72 in 10.0 mi ESE 6.9 mph - N/A   Clear